{"data":{"norad_id":58871,"intl_designator":"2024-019U","name":"STARLINK-31214","alt_names":[],"object_type":"PAYLOAD","status":"ACTIVE","operator":null,"country":"US","launch_date":"2024-01-29","launch_site_code":"AFETR","launch_vehicle":null,"mission":null,"orbit_class":"UNKNOWN","rcs_meters":null,"size_class":null,"mass_kg":null,"dimensions":null,"purposes":["comms"],"wikipedia_slug":null,"has_3d_model":false,"image_url":null,"decayed_at":null,"tle_current":{"epoch":"2026-09-20T08:02:45.712320Z","epoch_age_seconds":166848,"freshness":"FRESH","line1":"1 58871U 24019U   26263.33525130  .00000579  00000+0  30550-4 0  9993","line2":"2 58871  43.0003 229.4170 0001094 269.1389  90.9338 15.27575973148835","mean_motion":15.27575973,"eccentricity":0.0001094,"inclination_deg":43.0003,"raan_deg":229.417,"arg_perigee_deg":269.1389,"mean_anomaly_deg":90.9338,"bstar":3.055e-5,"rev_number":14883,"period_min":94.266997219915,"perigee_km":482.31053927476,"apogee_km":483.81176943093,"semimajor_km":6861.1981543528,"source":"CELESTRAK","updated_at":"2026-09-21T09:00:33.990613Z"}}}